Location: Croisilles
(50.1998°N, 2.8793°E)
Time: 12:40:24
(UTC+00:00)

Cosmos 1455 - Pass Details

Date: 21 January 2021
Orbit: 499 x 520 km, 82.5° (Epoch: 26 February)

Event Time Altitude Azimuth Distance (km) Brightness Sun altitude
Rises 17:02:42 0° 3° (N) 2,630 5.5 -6.3°
Reaches altitude 10° 17:05:24 10° 23° (NNE) 1,743 4.5 -6.7°
Maximum altitude 17:08:03 18° 67° (ENE) 1,329 3.6 -7.1°
Drops below altitude 10° 17:10:41 10° 111° (ESE) 1,742 4.4 -7.5°
Sets 17:13:22 0° 131° (SE) 2,627 5.5 -7.9°
